Satellite: AO-51
Catalog number: 28375
Epoch time:      04357.76021304
Element set:     139
Inclination:       98.2394 deg
RA of node:        61.0939 deg
Eccentricity:    0.0085178
Arg of perigee:    44.1784 deg
Mean anomaly:     316.6158 deg
Mean motion:   14.40420745 rev/day
Decay rate:       -2.0e-08 rev/day^2
Epoch rev:            2521
Checksum:              292

/EX
SB KEPS @ AMSAT  $ORB04358.W
Orbital Elements  04358.WEATHER

HR AMSAT ORBITAL ELEMENTS FOR WEATHER SATELLITES
FROM WA5QGD FORT WORTH,TX December 23, 2004
SEND SUBSCRIBE/UNSUBSCRIBE TO majordomo@amsat.org ONLY
BID: ORB04358.W
TO ALL RADIO AMATEURS BT

Satellite: NOAA-10
Catalog number: 16969
Epoch time:      04359.06608978
Element set:     529
Inclination:       98.7621 deg
RA of node:       358.4334 deg
Eccentricity:    0.0011571
Arg of perigee:   283.9659 deg
Mean anomaly:      76.0308 deg
Mean motion:   14.27231634 rev/day
Decay rate:       -5.1e-07 rev/day^2
Epoch rev:           95011
Checksum:              324

Satellite: NOAA-11
Catalog number: 19531
Epoch time:      04358.40569139
Element set:     385
Inclination:       98.8574 deg
RA of node:        80.9582 deg
Eccentricity:    0.0012478
Arg of perigee:    89.2110 deg
Mean anomaly:     271.0486 deg
Mean motion:   14.14743821 rev/day
Decay rate:      -1.75e-06 rev/day^2
Epoch rev:           83807
Checksum:              323

Satellite: NOAA-12
Catalog number: 21263
Epoch time:      04359.04767203
Element set:     877
Inclination:       98.6869 deg
RA of node:       344.9165 deg
Eccentricity:    0.0012319
Arg of perigee:   215.2576 deg
Mean anomaly:     144.7921 deg
Mean motion:   14.25439051 rev/day
Decay rate:        4.7e-07 rev/day^2
Epoch rev:           70729
Checksum:              320

Satellite: MET-3/5
Catalog number: 21655
Epoch time:      04358.38296842
Element set:     700
Inclination:       82.5549 deg
RA of node:       282.8464 deg
Eccentricity:    0.0012664
Arg of perigee:   317.9099 deg
Mean anomaly:      42.1097 deg
Mean motion:   13.16997676 rev/day
Decay rate:        5.1e-07 rev/day^2
Epoch rev:           64217
Checksum:              335

Satellite: MET-2/21
Catalog number: 22782
Epoch time:      04357.52810116
Element set:      86
Inclination:       82.5505 deg
RA of node:        41.1228 deg
Eccentricity:    0.0021003
Arg of perigee:   257.8116 deg
Mean anomaly:     102.0704 deg
Mean motion:   13.83577454 rev/day
Decay rate:        8.6e-07 rev/day^2
Epoch rev:           57114
Checksum:              266

Satellite: OKEAN-4
Catalog number: 23317
Epoch time:      04358.20749662
Element set:     504
Inclination:       82.5404 deg
RA of node:        61.4586 deg
Eccentricity:    0.0022595
Arg of perigee:     0.5313 deg
Mean anomaly:     359.5927 deg
Mean motion:   14.82009537 rev/day
Decay rate:       4.10e-06 rev/day^2
Epoch rev:           54984
Checksum:              297

Satellite: NOAA-14
Catalog number: 23455
Epoch time:      04358.32195781
Element set:     408
Inclination:       99.1180 deg
RA of node:        37.5649 deg
Eccentricity:    0.0010182
Arg of perigee:   134.3917 deg
Mean anomaly:     225.8105 deg
Mean motion:   14.13520942 rev/day
Decay rate:       1.73e-06 rev/day^2
Epoch rev:           51465
Checksum:              290

Satellite: SICH-1
Catalog number: 23657
Epoch time:      04358.17753648
Element set:     307
Inclination:       82.5300 deg
RA of node:       202.3001 deg
Eccentricity:    0.0023986
Arg of perigee:   345.1475 deg
Mean anomaly:      14.9050 deg
Mean motion:   14.81031764 rev/day
Decay rate:       3.84e-06 rev/day^2
Epoch rev:           50190
Checksum:              272

Satellite: NOAA-15
Catalog number: 25338
Epoch time:      04358.11832127
Element set:     852
Inclination:       98.5168 deg
RA of node:         5.7963 deg
Eccentricity:    0.0011121
Arg of perigee:   148.8059 deg
Mean anomaly:     211.3799 deg
Mean motion:   14.24476428 rev/day
Decay rate:        5.4e-07 rev/day^2
Epoch rev:           34368
Checksum:              313

Satellite: RESURS
Catalog number: 25394
Epoch time:      04358.62728282
Element set:     977
Inclination:       98.5623 deg
RA of node:        66.6559 deg
Eccentricity:    0.0000904
Arg of perigee:   345.4393 deg
Mean anomaly:      14.6760 deg
Mean motion:   14.24042162 rev/day
Decay rate:        2.6e-07 rev/day^2
Epoch rev:           33546
Checksum:              306

Satellite: FENGYUN1
Catalog number: 25730
Epoch time:      04357.87752350
Element set:     307
Inclination:       98.6050 deg
RA of node:         0.7409 deg
Eccentricity:    0.0013673
Arg of perigee:   240.8201 deg
Mean anomaly:     119.1606 deg
Mean motion:   14.11784042 rev/day
Decay rate:      -1.68e-06 rev/day^2
Epoch rev:           28963
Checksum:              278

Satellite: OKEAN-0
Catalog number: 25860
Epoch time:      04358.18618113
Element set:     311
Inclination:       97.7774 deg
RA of node:        25.6514 deg
Eccentricity:    0.0002031
Arg of perigee:    83.1834 deg
Mean anomaly:     276.9615 deg
Mean motion:   14.73173583 rev/day
Decay rate:       1.52e-06 rev/day^2
Epoch rev:           29209
Checksum:              290

Satellite: NOAA-16
Catalog number: 26536
Epoch time:      04358.15702050
Element set:     158
Inclination:       98.9898 deg
RA of node:       309.8226 deg
Eccentricity:    0.0010289
Arg of perigee:   200.4577 deg
Mean anomaly:     159.6166 deg
Mean motion:   14.12189191 rev/day
Decay rate:       1.40e-06 rev/day^2
Epoch rev:           21921
Checksum:              310

